Location: Rainwater Observatory
(33.2833°N, 89.3833°W)
Time: 17:15:42
(UTC-05:00)

Daily predictions for brighter satellites

Satellite Brightness Start Highest point End
(mag) Time Altitude Azimuth Time Altitude Azimuth Time Altitude Azimuth
COSMO-SKYMED 1 2.7 18:41:29 10° NNE 18:45:44 54° E 18:49:58 10° S
deb Kosmos-1763 4.5 18:42:07 10° SSW 18:45:54 73° WNW 18:49:43 10° NNE
Cosmos 2218 Rocket 4.0 18:40:02 10° S 18:46:07 65° E 18:52:12 10° NNE
Cosmos 2322 Rocket 2.4 18:40:46 10° N 18:46:11 48° ENE 18:51:35 10° SE
Aureole 1 Rocket 4.1 18:40:48 10° SSW 18:48:08 89° W 18:53:45 10° NNE
Cosmos 1626 3.1 18:45:06 10° NNE 18:48:14 25° ENE 18:51:22 10° SE
BREEZE-M DEB (TANK) 1.6 18:47:12 10° WSW 18:49:55 58° NW 18:51:53 10° NE
Lacrosse 5 rocket 4.2 18:49:12 10° NW 18:50:35 11° NW 18:51:58 10° NNW
SL-8 R/B 3.7 18:45:50 10° SW 18:50:39 79° SE 18:55:29 10° NE
CZ-4 R/B 4.4 18:47:08 10° SSE 18:51:12 62° ENE 18:55:17 10° N
Meteor 1-11 4.4 18:47:41 10° N 18:53:18 50° E 18:58:49 10° SSE
NOSS 3-4 (A) 4.0 18:47:19 10° NNW 18:54:33 85° WSW 19:02:14 10° SSE
Cosmos 1408 Rocket 3.6 18:50:06 10° N 18:54:34 83° E 18:59:01 10° S
NOSS 3-4 (C) 4.0 18:47:26 10° NNW 18:54:40 85° WSW 19:02:21 10° SSE
Meteor 2-15 Rocket 4.4 18:49:33 10° N 18:55:39 71° E 19:01:44 10° SSE
EO 1 Del DPAF 3.4 18:52:18 10° N 18:56:09 80° WNW 18:59:59 10° SSW
Centaur AC-112 4.3 18:46:44 10° WSW 18:58:01 37° S 19:01:18 10° ESE
USA 267 3.7 18:51:57 10° ENE 18:58:07 43° SE 19:04:14 10° SSW
Atlas Centaur 2 2.2 18:54:14 10° WSW 18:58:53 63° S 19:04:35 11° E
Cosmos 1328 3.7 18:55:53 10° N 18:59:52 81° E 19:03:48 10° S
DELTA 2 R/B (1) 4.3 18:55:31 10° WNW 19:00:50 44° N 19:05:56 11° ENE
MONITOR-E 4.2 18:59:32 10° SSE 19:02:32 54° ENE 19:05:33 10° N
Cosmos 1727 Rocket 4.2 18:56:26 10° N 19:02:33 48° E 19:08:38 10° SSE
YAOGAN 1 2.8 19:02:22 10° S 19:06:40 74° WSW 19:11:00 10° NNW
ALOS 2.7 19:03:48 10° SE 19:08:08 40° ENE 19:12:29 10° N
CZ-4C R/B 3.3 19:06:09 10° SSE 19:09:42 19° ESE 19:12:17 14° ENE
FENGYUN 3A 3.9 19:07:39 10° SE 19:12:45 46° ENE 19:17:54 10° N
CZ-4 R/B 3.2 19:10:11 10° SSW 19:14:07 38° W 19:18:03 10° NNW
GP-B 3.2 19:11:48 10° N 19:16:15 83° W 19:20:40 10° S
MOS 1 4.3 19:10:38 10° SSE 19:16:17 89° WSW 19:22:00 10° NNW
Cosmos 1703 3.4 19:14:16 10° N 19:18:05 49° E 19:21:53 10° SSE
Cosmos 1400 Rocket 2.7 19:23:18 10° N 19:27:21 82° E 19:31:19 10° S
ASTRO E2 2.9 19:24:37 10° WSW 19:28:33 61° S 19:30:31 27° ESE
Tiangong 1 0.5 19:26:21 10° WNW 19:29:03 78° NNE 19:29:46 43° ESE
Cosmos 2219 Rocket 4.1 19:28:26 10° NE 19:29:17 11° NE 19:29:17 11° NE
Cosmos 1624 Rocket 4.4 19:27:00 10° NNW 19:32:10 66° WSW 19:37:21 10° S
Cosmos 1048 Rocket 4.3 19:27:57 10° S 19:32:43 40° ESE 19:37:30 10° NNE
GRACE-2 3.8 19:31:05 10° S 19:33:38 72° W 19:36:12 10° N
Thor Agena Rocket 3.4 19:29:21 10° NNE 19:34:25 69° ESE 19:39:26 10° S
GRACE-1 4.1 19:32:55 10° S 19:35:28 62° W 19:38:02 10° N
Cosmos 1908 3.1 19:32:27 10° S 19:36:21 74° E 19:40:16 10° N
Iridium 4 Rocket 3.6 19:33:22 10° SSE 19:38:31 58° E 19:44:06 10° N
SL-16 R/B 3.0 19:34:16 10° NNW 19:39:46 54° WSW 19:45:16 10° S
Cosmos 1743 Rocket 4.1 19:36:45 10° NNW 19:41:04 59° W 19:45:23 10° S
Cosmos 1420 Rocket 4.5 19:37:55 10° N 19:42:51 37° ENE 19:44:27 31° ESE
H-2A R/B 3.0 19:43:00 36° ESE 19:44:01 46° ENE 19:47:45 10° N
Cosmos 2151 3.2 19:39:48 10° N 19:44:04 73° W 19:48:18 10° S
Cosmos 44 3.1 19:42:34 10° S 19:46:50 50° ESE 19:47:53 40° ENE
Delta 2 Rocket 2.9 19:43:36 10° W 19:47:11 69° N 19:47:45 55° NE
Cosmos 1726 4.0 19:46:39 10° SSE 19:47:41 17° SSE 19:47:41 17° SSE
APEX 2.6 19:47:41 10° SSW 19:51:17 70° ESE 19:51:17 70° ESE
FREGAT/IRIS 4.2 19:56:03 26° N 19:56:03 26° N 19:57:30 10° N
Cosmos 2221 2.5 19:51:09 10° S 19:55:26 80° W 19:59:47 10° N
Cosmos 44 Rocket 3.1 19:52:41 10° SSW 19:57:21 66° ESE 19:58:42 44° NE
ISS -1.7 19:56:01 10° WNW 19:58:45 25° SW 20:00:17 17° S
Cosmos 1535 Rocket 4.3 19:55:57 10° S 20:02:03 68° E 20:08:08 10° NNE
Milstar 3 Cent rocket 4.3 19:55:51 10° W 20:03:06 26° SW 20:07:23 12° SSE
Cosmos 158 Rocket 4.1 20:01:28 10° SSW 20:06:25 73° WNW 20:11:32 10° NNE
Cosmos 1315 Rocket 3.2 20:04:15 10° NNW 20:08:16 63° W 20:12:20 10° S
BREEZE-M DEB (TANK) 4.1 20:09:02 10° WNW 20:09:31 16° WNW 20:09:31 16° WNW
Cosmos 921 Rocket 2.9 20:06:36 10° NNW 20:11:04 86° WSW 20:11:50 60° S
Cosmos 1269 Rocket 3.9 20:07:38 10° SSW 20:12:54 89° ESE 20:16:59 17° NNE
COSMOS 2428 3.1 20:11:43 10° N 20:16:20 45° NE 20:16:20 45° NE
Cosmos 2098 Rocket 3.4 20:15:31 10° SSW 20:19:17 61° W 20:24:07 10° N
Cosmos 2333 Rocket 3.9 20:15:58 10° N 20:18:01 19° NNE 20:18:01 19° NNE
FengYun 1-2 T 4.4 20:15:25 10° S 20:20:55 70° WSW 20:26:24 10° NNW
RESURS DK-1 2.9 20:19:28 10° NNW 20:23:04 57° WNW 20:23:04 57° WNW
Cosmos 2360 Rocket 2.7 20:18:30 10° NNW 20:24:03 59° WSW 20:28:04 19° S
Cosmos 2219 3.2 20:18:35 10° SSW 20:24:19 81° WNW 20:27:40 26° NNE
MOS 1-B Rocket 4.0 20:25:31 55° NE 20:25:31 55° NE 20:30:25 10° N
SL-24 R/B - RUBIN 2 4.2 20:27:07 10° NNW 20:30:53 54° NW 20:30:53 54° NW
USA 267 4.1 20:37:01 21° NNE 20:41:03 46° NW 20:47:11 10° WSW
Cosmos 1934 Rocket 4.3 20:36:56 10° SSW 20:43:11 65° W 20:49:32 10° N
DELTA 2 R/B (1) 4.3 20:42:21 10° WNW 20:46:42 48° NNW 20:46:42 48° NNW
Atlas Centaur 2 2.7 20:42:28 10° W 20:47:12 56° SW 20:47:12 56° SW
CZ-4C R/B 3.1 20:52:47 10° SW 20:57:35 43° NW 20:57:35 43° NW
Cosmos 2219 Rocket 4.1 21:09:10 10° NNW 21:11:01 22° NNW 21:11:01 22° NNW
Centaur D AC-28 4.2 21:28:37 10° WSW 22:06:26 12° E 22:10:55 10° E
Centaur D AC-28 4.2 21:28:37 10° WSW 22:06:25 12° E 22:10:55 10° E
Centaur D AC-28 4.1 21:28:37 10° WSW 22:06:26 12° E 22:10:55 10° E
Centaur D AC-28 4.2 21:28:37 10° WSW 22:06:24 12° E 22:10:55 10° E
Centaur D AC-28 4.2 21:28:37 10° WSW 22:06:25 12° E 22:10:56 10° E
